Home > Weather > Lübeck > Past weeks

Flag for Germany Past Weather in Lübeck, Schleswig-Holstein, Germany — Yesterday and Last 2 Weeks

Now
54 °F

Clear.


Feels Like: 52 °F
Forecast: 55 / 66 °F
Wind: 7 mph from Southwest

Location: Hamburg-Fuhlsbuettel

Current Time: Jun 27, 2016 at 6:07:38 AM

Latest Report: Jun 27, 2016 at 5:20 AM


Visibility: 10 mi

Pressure: 30.01 "Hg

Humidity: 94%

Dew Point: 52 °F

Location of LübeckLocation

Past Weather in Lübeck — Graph

°F

Lübeck Temperature Yesterday

Maximum temperature yesterday: 70 °F (at 3:50 PM)
Minimum temperature yesterday: 55 °F (at 10:50 PM)
Average temperature yesterday: 61 °F

High & Low Weather Summary for the Past Weeks

 TemperatureHumidityPressure
High90 °F (Jun 23, 5:50 PM)100% (Jun 14, 4:20 AM)30.21 "Hg (Jun 14, 4:20 AM)
Low46 °F (Jun 20, 1:20 AM)40% (Jun 23, 3:50 PM)29.45 "Hg (Jun 14, 12:20 PM)
Average63 °F82%29.86 "Hg
* Reported Jun 12 4:20 AM — Jun 27 4:50 AM, Lübeck, Weather by CustomWeather, © 2016

Note: Actual official high and low records may vary slightly from our data, if they occured in-between our weather recording intervals... More about our weather records

Advertising

Lübeck Weather History for the Previous 24 Hours

Scroll right to see more
 ConditionsComfort  
Time TempWeatherWind HumidityBarometerVisibility
4:50 AM
Mon, Jun 27
54 °FClear.8 mph94%30.01 "Hg10 mi
4:20 AM52 °FClear.7 mph94%29.98 "Hg10 mi
3:50 AM54 °FClear.6 mph94%29.98 "Hg10 mi
3:20 AM54 °FClear.7 mph94%30.01 "Hg10 mi
2:50 AM54 °FClear.6 mph94%30.01 "Hg10 mi
2:20 AM55 °FClear.7 mph88%30.01 "Hg10 mi
1:50 AM55 °FClear.6 mph88%30.01 "Hg10 mi
1:20 AM55 °FClear.5 mph82%30.01 "Hg10 mi
12:50 AM55 °FClear.5 mph88%30.01 "Hg10 mi
12:20 AM55 °FClear.6 mph88%30.01 "Hg10 mi
11:50 PM
Sun, Jun 26
55 °FPassing clouds.5 mph94%30.01 "HgN/A
11:20 PM55 °FClear.3 mph94%30.01 "Hg10 mi
10:50 PM55 °FPassing clouds.3 mph94%30.01 "HgN/A
10:20 PM57 °FSunny.2 mph88%30.01 "Hg10 mi
9:50 PM59 °FSunny.3 mph82%29.98 "Hg10 mi
9:20 PM61 °FPassing clouds.5 mph77%29.98 "HgN/A
8:50 PM63 °FScattered clouds.2 mph73%29.98 "HgN/A
8:20 PM63 °FPassing clouds.6 mph68%29.98 "HgN/A
7:50 PM63 °FScattered clouds.8 mph73%29.98 "HgN/A
7:20 PM63 °FScattered clouds.13 mph68%29.98 "HgN/A
6:50 PM66 °FScattered clouds.12 mph60%29.98 "HgN/A
6:20 PM66 °FScattered clouds.12 mph56%29.98 "HgN/A
5:50 PM68 °FScattered clouds.13 mph56%29.98 "HgN/A
5:20 PM66 °FScattered clouds.10 mph60%29.98 "HgN/A
4:50 PM68 °FPartly sunny.13 mph56%29.98 "HgN/A
4:20 PM68 °FPartly sunny.15 mph56%29.98 "HgN/A
3:50 PM70 °FBroken clouds.16 mph57%29.98 "HgN/A
3:20 PM68 °FScattered clouds.12 mph60%29.98 "HgN/A
2:50 PM66 °FScattered clouds.15 mph56%29.98 "HgN/A
2:20 PM66 °FScattered clouds.13 mph56%29.98 "HgN/A
1:50 PM66 °FScattered clouds.13 mph56%29.98 "HgN/A
1:20 PM64 °FScattered clouds.12 mph64%29.98 "HgN/A
12:50 PM64 °FScattered clouds.13 mph60%29.98 "HgN/A
12:20 PM63 °FScattered clouds.14 mph68%29.98 "HgN/A
11:50 AM64 °FPartly sunny.16 mph68%29.98 "HgN/A
11:20 AM63 °FPartly sunny.13 mph73%29.98 "HgN/A
10:50 AM63 °FPartly sunny.13 mph68%29.98 "HgN/A
10:20 AM63 °FPartly sunny.10 mph77%29.98 "HgN/A
9:50 AM61 °FPartly sunny.14 mph83%29.98 "HgN/A
9:20 AM59 °FBroken clouds.9 mph82%29.98 "HgN/A
8:50 AM59 °FPartly sunny.12 mph88%29.95 "HgN/A
8:20 AM57 °FBroken clouds.10 mph94%29.95 "HgN/A
7:50 AM57 °FPartly sunny.15 mph94%29.95 "HgN/A
7:20 AM57 °FBroken clouds.10 mph94%29.95 "HgN/A
6:50 AM57 °FBroken clouds.8 mph94%29.95 "HgN/A
6:20 AM57 °FScattered clouds.8 mph94%29.92 "HgN/A
Weather by CustomWeather, © 2016

See weather overviewHow to use our weather pages